AirNav   Pilot Hours Calculator
 
 1087 users online  

15WI Peterson Field Airport
Oregon, Wisconsin, USA

GOING TO OREGON?


FAA INFORMATION EFFECTIVE 22 APRIL 2021

Location

FAA Identifier: 15WI
Lat/Long: 42-55-39.0000N 089-25-05.4300W
42-55.650000N 089-25.090500W
42.9275000,-89.4181750
(estimated)
Elevation: 978 ft. / 298 m (estimated)
Variation: 00E (1985)
From city: 2 miles W of OREGON, WI
Time zone: UTC -5 (UTC -6 during Standard Time)
Zip code: 53575

Airport Operations

Airport use: Private use. Permission required prior to landing
Activation date: 08/1978
Control tower: no
ARTCC: CHICAGO CENTER
FSS: GREEN BAY FLIGHT SERVICE STATION
Attendance: UNATNDD
Wind indicator: yes
Segmented circle: no

Airport Communications

WX AWOS-3 at C29 (12 nm NW): 118.675 (608-833-1686)
WX ASOS at MSN (13 nm N): PHONE 608-249-0615

Nearby radio navigation aids

VOR radial/distance  VOR name  Freq  Var
MSNr192/13.5MADISON VORTAC108.6003E
JVLr325/26.1JANESVILLE VOR/DME114.3003E

 
NDB name  Hdg/Dist  Freq  Var  ID
ROCK RIVER245/33.837101WRYV .-. -.-- ...-

Airport Services

Runway Information

Runway E/W

Dimensions: 2600 x 150 ft. / 792 x 46 m
Surface: turf
RUNWAY E  RUNWAY W
Traffic pattern: leftleft

Airport Ownership and Management from official FAA records

Ownership: Privately-owned
Owner: OREGON FARM LIMITED PARTNERSHIP
1275 LATHERS ROAD
OREGON, WI 53575
Phone 608-835-3768
Manager: PHILIP L. PETERSON
1275 LATHERS ROAD
OREGON, WI 53575
Phone 608-835-3768

Airport Operational Statistics

Aircraft based on the field: 1
Single engine airplanes: 1
    

Additional Remarks

FOR CD CTC CHICAGO ARTCC AT 630-906-8921.

Instrument Procedures

There are no published instrument procedures at 15WI.

Some nearby airports with instrument procedures:

C29 - Middleton Municipal Airport - Morey Field (12 nm NW)
KMSN - Dane County Regional Airport-Truax Field (13 nm N)
87Y - Blackhawk Airfield (15 nm NE)
KEFT - Monroe Municipal Airport (20 nm S)
KJVL - Southern Wisconsin Regional Airport (25 nm SE)
 
Loc | Ops | Rwys | IFR | FBO | Links
Com | Nav | Svcs | Stats | Notes
Area around 15WI (Peterson Field Airport)
 
Road maps at: MapQuest Bing Google
 
Aerial photo
No photo
 
Sectional chart

 
Airport distance calculator
Flying to Peterson Field Airport? Find the distance to fly.

From to 15WI

Sunrise and sunset
Times for 09-May-2021
 Local
(UTC-5)
 Zulu
(UTC)
Morning civil twilight05:1010:10
Sunrise05:4210:42
Sunset20:0601:06
Evening civil twilight20:3801:38

Current date and time
Zulu (UTC)  10-May-2021 00:42:10
Local (UTC-5)  09-May-2021 19:42:10
 
METAR
KC29 
12nm NW 
100015Z AUTO 00000KT 10SM OVC110 14/M02 A2998 RMK AO1 T01401022
KMSN 
13nm N 
092353Z 00000KT 10SM BKN085 BKN100 14/M02 A2997 RMK AO2 SLP151 VIRGA SE T01441022 10161 20133 52005
KEFT 
21nm S 
100015Z AUTO 15003KT 10SM SCT080 14/M03 A2998 RMK AO2 T01351026
TAF
KMSN 
13nm N 
092030Z 0921/1018 04011G20KT P6SM FEW050 BKN250 FM092300 03009KT P6SM BKN050 FM101500 04006KT P6SM SCT080
NOTAMs
Click for the latest NOTAMs
NOTAMs are issued by the DoD/FAA and will open in a separate window not controlled by AirNav.

 

 
 

Would you like to see your business listed on this page?

 If your business provides an interesting product or service to pilots, flight crews, aircraft, or users of the Peterson Field Airport, you should consider listing it here.  To start the listing process, click on the button below
 
Add a business
 

Other Pages about Peterson Field Airport

Update a link
 
Copyright © AirNav, LLC. All rights reserved. Privacy Policy  Contact